Regional Weather Roundup
Issued by NWS Charleston, WV

Home | Current Version | Previous Version | Graphics & Text | Print | Product List | Glossary On
Versions: 1 2 3 4 5 6 7 8 9 10 11 12 13 14 15 16 17 18 19 20 21 22 23 24 25 26 27 28 29 30 31 32 33 34 35 36 37 38 39 40 41 42 43 44 45 46 47 48 49 50
000
ASUS41 KRLX 241610
RWRRLX
West Virginia Regional Weather Roundup
National Weather Service Charleston WV
1100 AM EST TUE JAN 24 2017

Note: "fair" indicates few or no clouds below 12,000 feet with no
significant weather and/or obstructions to visibility.

WVZ003-241700-
Northern Panhandle of West Virginia

CITY           SKY/WX    TMP DP  RH WIND       PRES   REMARKS
WHEELING       CLOUDY    39  37  92 W8        29.70R FOG
$$

WVZ009-241700-
Northwest West Virginia

CITY           SKY/WX    TMP DP  RH WIND       PRES   REMARKS
PARKERSBURG    CLOUDY    42  39  89 W7        29.79R
$$

WVZ006-241700-
Western West Virginia

CITY           SKY/WX    TMP DP  RH WIND       PRES   REMARKS
HUNTINGTON     CLOUDY    43  40  89 W8        29.83R
$$

WVZ015-241700-
West Central West Virginia

CITY           SKY/WX    TMP DP  RH WIND       PRES   REMARKS
CHARLESTON     DRZL/FOG  43  40  89 W7        29.80R VSB 1
$$

WVZ022-031-241700-
North Central West Virginia

CITY           SKY/WX    TMP DP  RH WIND       PRES   REMARKS
CLARKSBURG     LGT RAIN  38  36  92 W6        29.72R
MORGANTOWN     CLOUDY    37  35  92 SW3       29.70R FOG
$$

WVZ025-035-042-045-241700-
Southern West Virginia

CITY           SKY/WX    TMP DP  RH WIND       PRES   REMARKS
BECKLEY        CLOUDY    38  36  92 W14G21    29.74R FOG
LOGAN          FOG       41  41 100 VRB7      29.80R VSB 3/4
BLUEFIELD      LGT RAIN  37  35  92 W16G23    29.75R FOG
LEWISBURG      CLOUDY    37  34  88 NW3       29.71R FOG
$$

WVZ047-241700-
Northern Mountains of West Virginia

CITY           SKY/WX    TMP DP  RH WIND       PRES   REMARKS
ELKINS         CLOUDY    36  32  85 W8        29.69R
$$

WVZ052-241700-
Eastern Panhandle of West Virginia

CITY           SKY/WX    TMP DP  RH WIND       PRES   REMARKS
MARTINSBURG    CLOUDY    41  35  79 NW13      29.57S
PETERSBURG     CLOUDY    46  35  65 NW10      29.62R
$$




USA.gov is the U.S. government's official web portal to all federal, state and local government web resources and services.